| time (UTC) | temp F | wind direction | speed MPH | gust MPH | rain 1hr in | rain 24hr in | rain mn in | humidity % | barometer mb |
| 20260509081523 | 55 | 196 | 0.0 | 0.0 | 0.00 | 0.00 | 0.00 | 58 | 1011.5 |
| 20260509080012 | 55 | 158 | 0.0 | 0.0 | 0.00 | 0.00 | 0.00 | 60 | 1011.6 |
| 20260509074509 | 55 | 158 | 0.0 | 0.0 | 0.00 | 0.00 | 0.00 | 61 | 1011.7 |
| 20260509073004 | 55 | 158 | 0.0 | 0.0 | 0.00 | 0.00 | 0.00 | 60 | 1011.7 |
| 20260509071522 | 55 | 158 | 0.0 | 0.0 | 0.00 | 0.00 | 0.00 | 60 | 1011.7 |
| 20260509070021 | 54 | 158 | 0.0 | 0.0 | 0.00 | 0.00 | 0.00 | 59 | 1011.8 |
| 20260509064516 | 55 | 158 | 0.0 | 0.0 | 0.00 | 0.00 | 0.00 | 61 | 1011.8 |
| 20260509063019 | 55 | 158 | 0.0 | 0.0 | 0.00 | 0.00 | 0.00 | 60 | 1011.9 |
| 20260509061510 | 54 | 158 | 0.0 | 0.0 | 0.00 | 0.00 | 0.00 | 60 | 1012.1 |
| 20260509060009 | 54 | 158 | 0.0 | 0.0 | 0.00 | 0.00 | 0.00 | 61 | 1012.1 |
| 20260509054527 | 55 | 158 | 0.0 | 0.0 | 0.00 | 0.00 | 0.00 | 57 | 1012.2 |
| 20260509053022 | 56 | 158 | 0.0 | 0.0 | 0.00 | 0.00 | 0.00 | 56 | 1012.3 |
| 20260509051518 | 56 | 158 | 0.0 | 0.0 | 0.00 | 0.00 | 0.00 | 55 | 1012.4 |
| 20260509050016 | 56 | 157 | 0.0 | 0.0 | 0.00 | 0.00 | 0.00 | 54 | 1012.4 |
| 20260509044513 | 56 | 156 | 0.0 | 0.0 | 0.00 | 0.00 | 0.00 | 55 | 1012.3 |
| 20260509043028 | 56 | 156 | 0.0 | 0.0 | 0.00 | 0.00 | 0.00 | 56 | 1012.4 |
| 20260509041532 | 56 | 156 | 0.0 | 0.0 | 0.00 | 0.00 | 0.00 | 58 | 1012.4 |
| 20260509040029 | 55 | 144 | 0.0 | 0.0 | 0.00 | 0.00 | 0.00 | 60 | 1012.4 |
| 20260509034523 | 56 | 144 | 0.0 | 0.0 | 0.00 | 0.00 | 0.00 | 62 | 1012.5 |
| 20260509033017 | 57 | 143 | 0.0 | 0.0 | 0.00 | 0.00 | 0.00 | 59 | 1012.6 |
| 20260509031516 | 57 | 144 | 0.0 | 0.0 | 0.00 | 0.00 | 0.00 | 60 | 1012.6 |
| 20260509030010 | 57 | 143 | 0.0 | 0.0 | 0.00 | 0.00 | 0.00 | 61 | 1012.8 |
| 20260509024508 | 58 | 143 | 0.0 | 0.0 | 0.00 | 0.00 | 0.00 | 58 | 1012.8 |
| 20260509023005 | 58 | 144 | 0.0 | 0.0 | 0.00 | 0.00 | 0.00 | 58 | 1012.9 |
| 20260509021502 | 58 | 144 | 0.0 | 0.0 | 0.00 | 0.00 | 0.00 | 56 | 1012.9 |
| 20260509020037 | 59 | 143 | 0.0 | 0.0 | 0.00 | 0.00 | 0.00 | 61 | 1013.0 |
| 20260509014521 | 59 | 144 | 0.0 | 0.0 | 0.00 | 0.00 | 0.00 | 54 | 1012.9 |
| 20260509013021 | 60 | 143 | 0.0 | 0.0 | 0.00 | 0.00 | 0.00 | 52 | 1012.9 |
| 20260509011508 | 60 | 143 | 0.0 | 0.0 | 0.00 | 0.00 | 0.00 | 50 | 1012.9 |
| 20260509010005 | 60 | 143 | 0.0 | 0.0 | 0.00 | 0.00 | 0.00 | 55 | 1012.7 |
| 20260509004507 | 60 | 143 | 0.0 | 0.0 | 0.00 | 0.00 | 0.00 | 54 | 1012.6 |
| 20260509003020 | 61 | 144 | 0.0 | 0.0 | 0.00 | 0.00 | 0.00 | 52 | 1012.5 |
| 20260509001520 | 61 | 221 | 0.0 | 0.0 | 0.00 | 0.00 | 0.00 | 48 | 1012.4 |
| 20260509000014 | 62 | 221 | 0.0 | 0.0 | 0.00 | 0.00 | 0.00 | 49 | 1012.3 |
| 20260508234510 | 63 | 221 | 0.0 | 0.0 | 0.00 | 0.00 | 0.00 | 45 | 1012.1 |
| 20260508233008 | 63 | 221 | 0.0 | 0.0 | 0.00 | 0.00 | 0.00 | 42 | 1012.0 |
| 20260508231504 | 64 | 221 | 0.0 | 0.0 | 0.00 | 0.00 | 0.00 | 38 | 1011.9 |
| 20260508230038 | 64 | 221 | 0.0 | 0.0 | 0.00 | 0.00 | 0.00 | 39 | 1011.8 |
| 20260508224526 | 65 | 221 | 0.0 | 0.0 | 0.00 | 0.00 | 0.00 | 38 | 1011.8 |
| 20260508223015 | 65 | 221 | 0.0 | 0.0 | 0.00 | 0.00 | 0.00 | 36 | 1011.7 |
| 20260508221512 | 65 | 221 | 0.0 | 0.0 | 0.00 | 0.00 | 0.00 | 36 | 1011.9 |
| 20260508220011 | 65 | 221 | 0.0 | 0.0 | 0.00 | 0.00 | 0.00 | 35 | 1011.9 |
| 20260508214532 | 66 | 274 | 0.0 | 2.0 | 0.00 | 0.00 | 0.00 | 34 | 1011.9 |
| 20260508213038 | 67 | 224 | 0.0 | 2.0 | 0.00 | 0.00 | 0.00 | 33 | 1011.8 |
| 20260508211534 | 66 | 284 | 1.0 | 3.0 | 0.00 | 0.00 | 0.00 | 34 | 1011.9 |
| 20260508210021 | 68 | 262 | 1.0 | 3.0 | 0.00 | 0.00 | 0.00 | 33 | 1011.8 |
| 20260508204504 | 67 | 199 | 2.0 | 4.0 | 0.00 | 0.00 | 0.00 | 32 | 1011.7 |
| 20260508203012 | 68 | 272 | 2.0 | 3.0 | 0.00 | 0.00 | 0.00 | 31 | 1012.0 |
| 20260508201507 | 67 | 221 | 2.0 | 4.0 | 0.00 | 0.00 | 0.00 | 32 | 1012.0 |
| 20260508200007 | 67 | 266 | 2.0 | 4.0 | 0.00 | 0.00 | 0.00 | 32 | 1012.1 |
| 20260508194510 | 67 | 274 | 1.0 | 5.0 | 0.00 | 0.00 | 0.00 | 33 | 1012.3 |
| 20260508193004 | 67 | 313 | 2.0 | 5.0 | 0.00 | 0.00 | 0.00 | 32 | 1012.5 |
| 20260508191526 | 66 | 247 | 2.0 | 5.0 | 0.00 | 0.00 | 0.00 | 31 | 1012.9 |
| 20260508190015 | 64 | 278 | 1.0 | 4.0 | 0.00 | 0.00 | 0.00 | 33 | 1013.1 |
| 20260508184512 | 65 | 276 | 1.0 | 6.0 | 0.00 | 0.00 | 0.00 | 34 | 1013.1 |
| 20260508183016 | 65 | 283 | 2.0 | 5.0 | 0.00 | 0.00 | 0.00 | 33 | 1013.2 |
| 20260508181507 | 64 | 259 | 2.0 | 5.0 | 0.00 | 0.00 | 0.00 | 34 | 1013.4 |
| 20260508180012 | 64 | 290 | 3.0 | 6.0 | 0.00 | 0.00 | 0.00 | 35 | 1013.6 |
| 20260508174521 | 64 | 308 | 2.0 | 4.0 | 0.00 | 0.00 | 0.00 | 38 | 1013.7 |
| 20260508173020 | 63 | 248 | 3.0 | 5.0 | 0.00 | 0.00 | 0.00 | 36 | 1013.8 |
| 20260508171515 | 62 | 274 | 2.0 | 4.0 | 0.00 | 0.00 | 0.00 | 38 | 1014.2 |
| 20260508170011 | 63 | 243 | 3.0 | 5.0 | 0.00 | 0.00 | 0.00 | 38 | 1014.4 |
| 20260508164511 | 63 | 245 | 3.0 | 5.0 | 0.00 | 0.00 | 0.00 | 36 | 1014.3 |
| 20260508163008 | 62 | 279 | 1.0 | 3.0 | 0.00 | 0.00 | 0.00 | 38 | 1014.4 |
| 20260508161525 | 61 | 250 | 2.0 | 4.0 | 0.00 | 0.00 | 0.00 | 39 | 1014.7 |
| 20260508160020 | 61 | 265 | 1.0 | 4.0 | 0.00 | 0.00 | 0.00 | 41 | 1014.9 |
| 20260508154539 | 60 | 274 | 2.0 | 6.0 | 0.00 | 0.00 | 0.00 | 42 | 1014.9 |
| 20260508153012 | 60 | 282 | 1.0 | 4.0 | 0.00 | 0.00 | 0.00 | 42 | 1015.0 |
| 20260508151514 | 59 | 270 | 2.0 | 5.0 | 0.00 | 0.00 | 0.00 | 43 | 1015.2 |
| 20260508150033 | 59 | 265 | 1.0 | 4.0 | 0.00 | 0.00 | 0.00 | 43 | 1015.4 |
| 20260508144524 | 58 | 297 | 2.0 | 4.0 | 0.00 | 0.00 | 0.00 | 43 | 1015.4 |
| 20260508143023 | 58 | 224 | 0.0 | 2.0 | 0.00 | 0.00 | 0.00 | 47 | 1015.5 |
| 20260508141524 | 57 | 227 | 0.0 | 4.0 | 0.00 | 0.00 | 0.00 | 45 | 1015.4 |
| 20260508140014 | 56 | 250 | 1.0 | 3.0 | 0.00 | 0.00 | 0.00 | 46 | 1015.5 |
| 20260508134513 | 55 | 245 | 1.0 | 2.0 | 0.00 | 0.00 | 0.00 | 47 | 1015.7 |
| 20260508133044 | 54 | 264 | 2.0 | 4.0 | 0.00 | 0.00 | 0.00 | 51 | 1015.7 |
| 20260508131526 | 53 | 266 | 1.0 | 2.0 | 0.00 | 0.00 | 0.00 | 54 | 1015.9 |
| 20260508130028 | 53 | 274 | 1.0 | 2.0 | 0.00 | 0.00 | 0.00 | 55 | 1016.0 |
| 20260508124524 | 52 | 285 | 1.0 | 2.0 | 0.00 | 0.00 | 0.00 | 53 | 1016.0 |
| 20260508123041 | 51 | 311 | 0.0 | 0.0 | 0.00 | 0.00 | 0.00 | 59 | 1015.9 |
| 20260508121531 | 49 | 318 | 0.0 | 0.0 | 0.00 | 0.00 | 0.00 | 67 | 1015.9 |
| 20260508120030 | 47 | 318 | 0.0 | 0.0 | 0.00 | 0.00 | 0.00 | 70 | 1015.8 |
| 20260508114527 | 44 | 319 | 0.0 | 0.0 | 0.00 | 0.00 | 0.00 | 78 | 1015.8 |
| 20260508113008 | 42 | 319 | 0.0 | 0.0 | 0.00 | 0.00 | 0.00 | 81 | 1015.5 |
| 20260508111504 | 41 | 319 | 0.0 | 0.0 | 0.00 | 0.00 | 0.00 | 83 | 1015.4 |
| 20260508110020 | 39 | 319 | 0.0 | 0.0 | 0.00 | 0.00 | 0.00 | 85 | 1015.3 |
| 20260508104519 | 39 | 319 | 0.0 | 0.0 | 0.00 | 0.00 | 0.00 | 83 | 1015.1 |
| 20260508103017 | 39 | 319 | 0.0 | 0.0 | 0.00 | 0.00 | 0.00 | 84 | 1015.0 |
| 20260508101513 | 40 | 319 | 0.0 | 0.0 | 0.00 | 0.00 | 0.00 | 83 | 1014.9 |
| 20260508100007 | 40 | 319 | 0.0 | 0.0 | 0.00 | 0.00 | 0.00 | 81 | 1014.8 |
| 20260508094522 | 41 | 319 | 0.0 | 0.0 | 0.00 | 0.00 | 0.00 | 80 | 1014.8 |
| 20260508093022 | 42 | 319 | 0.0 | 0.0 | 0.00 | 0.00 | 0.00 | 80 | 1014.7 |
| 20260508091522 | 43 | 319 | 0.0 | 0.0 | 0.00 | 0.00 | 0.00 | 75 | 1014.6 |
| 20260508090030 | 43 | 319 | 0.0 | 0.0 | 0.00 | 0.00 | 0.00 | 76 | 1014.5 |
| 20260508084512 | 45 | 319 | 0.0 | 0.0 | 0.00 | 0.00 | 0.00 | 73 | 1014.4 |
| 20260508083010 | 47 | 319 | 0.0 | 0.0 | 0.00 | 0.00 | 0.00 | 66 | 1014.3 |